Other Public Products
Issued by NWS Grand Forks, ND

Home | Current Version | Previous Version | Graphics & Text | Print | Product List | Glossary On
Versions: 1 2 3 4 5 6 7 8 9 10 11 12 13 14 15 16 17 18 19 20 21 22 23 24 25 26 27 28 29 30 31 32 33 34 35 36 37 38 39 40 41 42 43 44 45 46 47 48 49 50
540
FPUS83 KFGF 231410
OPUFGF
PRAIRIE TO PINES WEATHER ROUNDUP
NATIONAL WEATHER SERVICE EASTERN NORTH DAKOTA/GRAND FORKS ND
900 AM CDT WED AUG 23 2017

 **SATELLITE DATA USED TO AUGMENT SKY COVER AT AUTOMATED STATIONS**
 *****  WEATHER ACROSS EASTERN NORTH DAKOTA  *****

CITY           SKY/WX    TMP DP  RH WIND       PRES   REMARKS
GRAND FORKS    PTSUNNY   59  52  77 CALM      30.10S
GRAND FORKS AF FAIR      57  50  79 CALM      30.11R
GRAND CITY NWS NOT AVBL
BUXTON         NOT AVBL
DEVILS LAKE    FAIR      61  51  70 SE6       30.08F
FARGO          FAIR      60  52  74 CALM      30.12R
WAHPETON ARPT  FAIR      59  50  72 CALM      30.12F
$$

 *****  WEATHER ACROSS CENTRAL AND WESTERN NORTH DAKOTA  *****

CITY           SKY/WX    TMP DP  RH WIND       PRES   REMARKS
JAMESTOWN      FAIR      57  52  83 S5        30.08F
BISMARCK       FAIR      57  51  80 E5        30.07F
MINOT          FAIR      65  46  50 SE5       30.02S
MINOT AFB      FAIR      63  48  58 S7        30.01S
GARRISON         N/A     62  49  62 SE3       30.05S
WILLISTON      FAIR      63  45  51 S6        30.03S
DICKINSON      FAIR      65  46  50 S14       30.06S
HETTINGER      FAIR      61  47  59 SE6       30.08F
$$

 *****  OTHER OBSERVATIONS NORTHEAST NORTH DAKOTA  *****

CITY           SKY/WX    TMP DP  RH WIND       PRES   REMARKS
WALHALLA       FAIR      57  57 100 CALM      30.10S
LANGDON        PTSUNNY   59  57  94 SE6       30.10S
CAVALIER       FAIR      57  52  82 CALM      30.11R
GRAFTON        FAIR      57  54  88 SE6       30.12F
CANDO          PTSUNNY   63  61  94 SE7       30.09S
FORT TOTTEN      N/A     61  49  64 S5        29.95S
ROLLA          FAIR      50  50 100 CALM      30.07S
RUGBY          FAIR      61  50  67 S7        30.05S
 ***** THE ABOVE OBSERVATIONS ARE NON NWS ARE NOT QUALITY
        CONTROLLED AND MAY MIS-REPORT RAIN FOR SNOW...
$$

 *****  OTHER OBSERVATIONS SOUTHEAST NORTH DAKOTA *****

CITY           SKY/WX    TMP DP  RH WIND       PRES   REMARKS
COOPERSTOWN    FAIR      61  54  77 S6        30.11S
VALLEY CITY      N/A     59  52  77 MISG      30.12S
OAKES          NOT AVBL
GWINNER        SUNNY     57  54  88 CALM      30.11S
SHEYENNE NWR     N/A     60  55  83 CALM      29.95
BUFFALO        NOT AVBL
WYNDMERE       NOT AVBL
 ***** THE ABOVE OBSERVATIONS ARE NON NWS ARE NOT QUALITY
       CONTROLLED AND MAY MIS-REPORT RAIN FOR SNOW...
$$

  *****  WEATHER ACROSS NORTHERN MINNESOTA  *****

CITY           SKY/WX    TMP DP  RH WIND       PRES   REMARKS
FLAG ISLAND    PTSUNNY   57  54  88 CALM      30.10S
WARROAD        FAIR      52  46  82 CALM      30.12S
ROSEAU           N/A     52  46  82 CALM      30.12S
HALLOCK        PTSUNNY   55  52  88 CALM      30.11F
THF RVR FALLS  CLOUDY    54  52  93 CALM      30.13S
HALSTAD        NOT AVBL
FOSSTON          N/A     52  50  93 CALM      30.13S
BAUDETTE       FAIR      57  54  89 CALM      30.12R
WASKISH        FAIR      55  52  88 CALM      30.12S
CROOKSTON      FAIR      54  52  94 CALM      30.13R
$$
  *****  WEATHER ACROSS CENTRAL AND WEST MINNESOTA  *****

CITY           SKY/WX    TMP DP  RH WIND       PRES   REMARKS
BEMIDJI        FAIR      55  54  94 CALM      30.13R
PARK RAPIDS    FAIR      57  53  86 NW3       30.13R
WADENA         FAIR      55  54  94 CALM      30.13R
DETROIT LAKES  FAIR      59  52  77 CALM      30.13F
MOORHEAD       FAIR      57  50  77 CALM      30.12S
FERGUS FALLS   FAIR      59  52  77 CALM      30.13S
ELBOW LAKE     FAIR      59  54  85 CALM      30.13S
MORRIS MN      FAIR      59  52  77 NW3       30.12S
STAPLES        FAIR      55  52  88 CALM      30.13S
WHEATON        FAIR      61  50  67 N5        30.14S
$$
  *****  WEATHER ELSEWHERE ACROSS MINNESOTA  *****

CITY           SKY/WX    TMP DP  RH WIND       PRES   REMARKS
DULUTH         FAIR      56  52  86 NW6       30.08S
INTRNTL FALLS  FAIR      58  49  72 N6        30.11R
ELY            FAIR      52  46  82 N5        30.09R
CLOQUET        FAIR      55  50  82 NW8       30.09S
BRAINERD       FAIR      58  53  84 N3        30.12S
HIBBING        CLOUDY    54  51  90 N7        30.10R
ALEXANDRIA     FAIR      64  54  69 NW3       30.14R
SAINT CLOUD    FAIR      60  53  77 N6        30.12S
MINNEAPOLIS    FAIR      63  51  65 NW6       30.11S
$$

  *****  WEATHER ACROSS SOUTH DAKOTA  *****

CITY           SKY/WX    TMP DP  RH WIND       PRES   REMARKS
SIOUX FALLS    FAIR      64  57  78 CALM      30.15S
BROOKINGS      FAIR      60  53  77 SE3       30.15S
WATERTOWN      FAIR      59  53  80 S5        30.13S
HURON          FAIR      60  54  80 SE8       30.11F
SISSETON         N/A     60  53  77 E5        30.11S
ABERDEEN       FAIR      57  53  86 S6        30.10F
MITCHELL       FAIR      63  56  78 S8        30.12F
PIERRE         FAIR      64  53  67 SE13      30.04F
MOBRIDGE       FAIR      66  50  56 SE8       30.05F
RAPID CITY     FAIR      66  52  60 N6        30.06S
$$

  *****  SOME WEATHER IN NEARBY STATES *****

CITY           SKY/WX    TMP DP  RH WIND       PRES   REMARKS
GLASGOW MT     FAIR      63  40  42 E9        30.00R
GREAT FALLS MT FAIR      59  35  40 SW6       30.04R
CHEYENNE WY    FAIR      68  41  37 NW9       30.23S
SCOTTSBLUFF NE FAIR      61  53  75 E7        30.13R
OMAHA NE       FAIR      65  57  75 NE3       30.17S
DES MOINES IA  FAIR      64  55  72 NW3       30.15R
DAVENPORT IA   FAIR      61  53  75 NW8       30.12R
CHICAGO IL     FAIR      68  50  52 NW10      30.04R
EAU CLAIRE WI  FAIR      62  53  72 N8        30.08S
LA CROSSE WI   FAIR      65  54  67 VRB6      30.09S
$$

  *****  SOME NATIONAL WEATHER *****

CITY           SKY/WX    TMP DP  RH WIND       PRES   REMARKS
LA GUARDIA NY  PTSUNNY   76  58  53 NW14      29.82R
RALEIGH NC     FAIR      83  74  74 W7        29.90S
ATLANTA GA     FAIR      80  72  76 W7        29.99S
NEW ORLEANS LA PTSUNNY   82  78  88 NW3       29.98S HX  91
OKLAHOMA CITY  FAIR      71  65  81 E13       30.11S
ALBUQUERQUE NM FAIR      66  57  72 NW6       30.30R
SALT LAKE CITY PTSUNNY   71  56  58 SE8       30.17R
LOS ANGELES CA CLOUDY    67  63  87 VRB5      29.97R
BOISE ID       FAIR      71  41  33 SE9       30.01R
SEATTLE WA     CLOUDY    61  56  83 S3        30.06R
$$

*** WEATHER ACROSS MANITOBA...SASKATCHEWAN AND ONTARIO ***
                ***ONTARIO***

CITY           SKY/WX    TMP DP  RH WIND       PRES   REMARKS
GERALDTON      CLOUDY    48  41  76 NW12G17   29.94R
THUNDER BAY    MOSUNNY   54  43  66 NW14      30.02R
SIOUX LOOKOUT  MOSUNNY   50  41  71 N6        30.11R
TORONTO        MOSUNNY   68  55  64 W17G24    29.84S
BIG TROUT LK   SUNNY     45  39  81 N5        30.09R
PICKLE LAKE    MOSUNNY   46  36  66 N3        30.08R
DRYDEN         SUNNY     50  46  87 NE5       30.11R
KENORA         PTSUNNY   52  46  82 E5        30.12R
$$
                *** MANITOBA***

CITY           SKY/WX    TMP DP  RH WIND       PRES   REMARKS
BRANDON        PTSUNNY   55  50  82 E8        30.05S
DAUPHIN        CLOUDY    57  55  94 E10G17    30.04S
ISLAND LAKE    MOSUNNY   54  45  71 N2        30.15R
PILOT MOUND      N/A     59  50  72 S8          N/A
THE PAS        MOSUNNY   59  54  82 E6        30.09R
THOMPSON       PTSUNNY   45  43  93 CALM      30.17R
WINNIPEG       CLOUDY    55  54  94 S5        30.11R
LYNN LAKE      MOSUNNY   48  48 100 E8        30.14R
CHURCHILL      SUNNY     52  46  82 NW8       30.13R
GILLAM         MOSUNNY   50  39  66 N9        30.16R
$$
                ***SASKATCHEWAN***

CITY           SKY/WX    TMP DP  RH WIND       PRES   REMARKS
ESTEVAN        MOSUNNY   59  45  58 CALM      30.01S
KINDERSLEY     PTSUNNY   59  50  72 SE5       29.99R
LLOYDMINSTER   MOSUNNY   59  57  94 E7        30.01R
PRINCE ALBERT  MOSUNNY   54  50  87 E7        30.07R
REGINA         MOSUNNY   59  43  55 S5        29.99S
YORKTON        CLOUDY    55  52  88 CALM      30.00S



USA.gov is the U.S. government's official web portal to all federal, state and local government web resources and services.